NASA PTD-1 (47482 NORAD) Tracking and Keplerian Element Data
This shows tracking and keplerian element data for the satellite.
Feedback or suggestion? Click here.
Element | Value |
Catalog | 47482 |
Name | NASA PTD-1 |
Epoch Orbit | 1256 |
Epoch Day | 105.71538073 |
Epoch Year | 2021 |
RAAN | 168.0645 |
Inclination | 97.5012 |
Eccentricity | 0.0008953 |
Argument of Perigee | 328.7954 |
Mean Anonmoly | 31.2744 |
Mean Motion | 15.1245942 |
Decay Rate | 1.227E-05 |
L1 | 1 47482U 21006BX 21105.71538073 .00001227 00000-0 74242-4 0 9992 |
L2 | 2 47482 97.5012 168.0645 0008953 328.7954 31.2744 15.12459420 12562 |
Live tracking and technical data element details for NASA PTD-1 (NORAD 47482). NASA PTD-1 can be tracked NOW for your location showing map with azimuth and elevation plus other details from your city location.
Track the satellite on the map from your city or location and see movement details for azimuth, elevation, latitude, longitude, range, height, and movement on the map or in text.
IsCatalogInMostPopularTable: catalog: 47482, numindb: 15
Update: records affected: 1
GetName: 47482 NASA PTD-1
Hit Count: updated at: Fri, 16 Apr 2021 11:11:32 GMT